Printer-friendly version

IAU Minor Planet Center

Minor Planet Center

MPEC 2008-G89 : 2008 GF110

The following Minor Planet Electronic Circular may be linked-to from your own Web pages, but must not otherwise be redistributed electronically.


Read MPEC 2008-G88 Read MPEC 2008-G90


M.P.E.C. 2008-G89                                Issued 2008 Apr. 15, 19:11 UT

     The Minor Planet Electronic Circulars contain information on unusual
         minor planets and routine data on comets.  They are published
   on behalf of Commission 20 of the International Astronomical Union by the
          Minor Planet Center, Smithsonian Astrophysical Observatory,
                          Cambridge, MA 02138, U.S.A.

             Prepared using the Tamkin Foundation Computer Network

                              MPC@CFA.HARVARD.EDU
          URL http://www.cfa.harvard.edu/iau/mpc.html  ISSN 1523-6714

                                  2008 GF110

Observations:
     K08GB0F  C2008 04 14.30621 12 57 03.09 +04 47 13.6          21.8 V EG089G96
     K08GB0F  C2008 04 14.31287 12 57 02.26 +04 47 15.1          20.6 V EG089G96
     K08GB0F  C2008 04 14.31961 12 57 01.40 +04 47 16.8          20.9 V EG089G96
     K08GB0F  C2008 04 14.32630 12 57 00.54 +04 47 18.3          20.7 V EG089G96
     K08GB0F* C2008 04 14.38825 12 56 52.58 +04 47 33.2          20.8 V EG089G96
     K08GB0F  C2008 04 14.39544 12 56 51.68 +04 47 35.2          20.9 V EG089G96
     K08GB0F  C2008 04 14.40265 12 56 50.78 +04 47 36.9          21.2 V EG089G96
     K08GB0F  C2008 04 14.40981 12 56 49.88 +04 47 38.5          21.3 V EG089G96
     K08GB0F  C2008 04 15.13534812 55 20.03 +04 50 29.7          20.9 V EG089H55
     K08GB0F  C2008 04 15.14548712 55 18.69 +04 50 32.4          21.3 V EG089H55
     K08GB0F  C2008 04 15.15563212 55 17.49 +04 50 34.8          21.0 V EG089H55
     K08GB0F  C2008 04 15.18344 12 55 14.12 +04 50 41.6          20.2 V EG089G96
     K08GB0F  C2008 04 15.18912 12 55 13.47 +04 50 42.9          20.3 V EG089G96
     K08GB0F  C2008 04 15.19471 12 55 12.75 +04 50 44.1          20.9 V EG089G96
     K08GB0F  C2008 04 15.20032 12 55 12.03 +04 50 45.6          20.6 V EG089G96
     K08GB0F  C2008 04 15.24289 12 55 06.60 +04 50 55.8          21.2 V EG089G96
     K08GB0F  C2008 04 15.24415 12 55 06.49 +04 50 56.0          20.6 V EG089G96
     K08GB0F  C2008 04 15.24987 12 55 05.73 +04 50 57.4          20.7 V EG089G96
     K08GB0F  C2008 04 15.25113 12 55 05.62 +04 50 57.4          20.2 V EG089G96
     K08GB0F  C2008 04 15.25687 12 55 04.87 +04 50 59.3          20.5 V EG089G96
     K08GB0F  C2008 04 15.25813 12 55 04.69 +04 50 59.1          20.2 V EG089G96
     K08GB0F  C2008 04 15.26388 12 55 04.00 +04 51 01.1          20.4 V EG089G96
     K08GB0F  C2008 04 15.26513 12 55 03.82 +04 51 00.9          21.1 V EG089G96

Observer details:
G96 Mt. Lemmon Survey.  Observer E. Beshore.  Measurers E. C. Beshore,
    A. Boattini, G. J. Garradd, A. R. Gibbs, A. D. Grauer, R. E. Hill,
    R. A. Kowalski, S. M. Larson, R. H. McNaught.  1.5-m reflector + CCD.
H55 Astronomical Research Observatory, Charleston.  Observer R. Holmes.
    Measurer K. Flanary.  0.81-m f/4.0 astrograph + CCD.

Orbital elements:
2008 GF110                                               Earth MOID = 0.2465 AU
Epoch 2008 May 14.0 TT = JDT 2454600.5                  MPC
M 137.86479              (2000.0)            P               Q
n   0.63949495     Peri.  357.23670     +0.83172762     -0.53053744
a   1.3342728      Node    36.37204     +0.51451493     +0.62588828
e   0.6860129      Incl.   16.01229     +0.20857505     +0.57165889
P   1.54           H   18.5           G   0.15           U   9
Residuals in seconds of arc
080414 G96  0.2+  0.1+    080415 H55  0.4+  0.3-    080415 G96  0.7+  0.0
080414 G96  0.6+  0.0     080415 H55  0.5-  0.0     080415 G96  0.1+  0.1+
080414 G96  0.6+  0.0     080415 H55  0.7+  0.1+    080415 G96  0.9+  0.2-
080414 G96  0.6+  0.1-    080415 G96  0.2+  0.3-    080415 G96  0.5+  0.4+
080414 G96  0.1+  0.2-    080415 G96  1.2+  0.4-    080415 G96  0.2+  0.1-
080414 G96  0.4+  0.0     080415 G96  1.0+  0.5-    080415 G96  0.8+  0.6+
080414 G96  0.7+  0.0     080415 G96  0.8+  0.3-    080415 G96  0.4+  0.1+
080414 G96  0.9+  0.1-    080415 G96  0.0   0.1+

Ephemeris:
2008 GF110               a,e,i = 1.33, 0.69, 16                  q = 0.4189
Date    TT    R. A. (2000) Decl.     Delta      r     Elong.  Phase     V
2008 04 14    12 57.70   +04 46.0    1.079    2.061   163.7     7.9    20.8
2008 04 24    12 38.61   +05 13.7    1.160    2.099   151.5    13.2    21.2
2008 05 04    12 24.05   +05 14.4    1.265    2.133   139.1    18.0    21.6
2008 05 14    12 14.31   +04 51.9    1.391    2.162   127.6    21.7    21.9
2008 05 24    12 09.00   +04 11.3    1.529    2.186   117.2    24.3    22.3

Sonia Keys                   (C) Copyright 2008 MPC           M.P.E.C. 2008-G89

Read MPEC 2008-G88 Read MPEC 2008-G90


Our Web policy. Index to the CBAT/MPC/ICQ pages.


Valid HTML 4.01!